Temperature
16 16 16 16 16 16 16 15 15 15 15 15 15 15 15 15 15 15 15 15 15 15 15 15 15 15 15 15 15 15 15 15 15 15 15 15 15 15 15 15 15 15 15
16 16 16 16 16 15 15 15 15 15 15 15 15 15 15 15 15 15 15 15 15 15 15 15 15 15 15 15 15 15 15 15 15 15 15 15 15 15 15 15 15 15 15
16 16 15 15 15 15 15 15 15 15 15 15 15 15 15 15 15 15 15 15 15 15 15 15 14 14 14 14 14 14 14 14 14 14 14 14 14 14 14 14 14 14 15
15 15 15 15 15 15 15 15 15 15 15 15 15 14 14 14 14 14 15 15 15 15 15 15 14 14 14 14 14 14 14 14 14 14 14 14 14 14 14 14 14 14 14
15 15 15 15 15 15 15 15 15 15 15 14 14 14 14 14 14 14 14 14 14 14 14 14 14 14 14 14 14 14 14 14 14 14 14 14 14 14 14 14 14 14 14
15 15 15 15 15 15 15 14 14 14 14 14 14 14 14 14 14 14 14 14 14 14 14 14 14 14 14 14 14 14 14 14 14 14 14 14 14 13 13 13 14 14 14
15 15 15 15 15 15 14 14 14 14 14 14 14 14 14 14 14 14 14 14 14 14 14 14 14 14 14 14 14 14 13 13 13 13 13 13 13 13 13 13 13 13 13
15 15 15 14 14 14 14 14 14 14 14 14 14 14 13 13 14 13 13 13 13 13 13 13 13 13 13 13 13 13 13 13 13 13 13 13 13 13 13 13 13 13 13
15 15 14 14 14 14 14 14 14 14 14 14 13 13 13 13 13 13 13 13 13 13 13 13 13 13 13 13 13 13 13 13 13 13 13 13 13 13 13 13 13 13 13
14 14 14 14 14 14 14 14 14 14 14 14 13 13 13 13 13 13 13 13 13 13 13 13 13 13 13 13 13 13 13 13 13 13 13 13 12 12 12 12 12 12 12
14 14 14 14 14 14 14 14 14 14 13 13 13 13 13 13 13 13 13 13 13 13 13 13 13 13 13 12 12 12 12 12 12 12 12 12 12 12 12 12 12 12 12
14 14 14 14 14 14 14 14 14 13 13 13 13 13 13 13 13 13 13 13 13 13 13 13 13 13 12 12 12 12 12 12 12 12 12 12 12 12 12 12 12 12 12
15 14 14 14 14 14 14 13 13 13 13 13 13 13 13 13 13 13 13 13 12 12 13 12 12 12 12 12 12 12 12 12 12 12 12 12 12 12 12 12 11 11 11
15 14 14 14 14 14 14 13 13 13 13 13 13 13 13 13 13 13 13 13 12 12 12 12 13 12 12 12 12 12 12 12 12 12 11 11 12 11 11 11 11 11 11
14 14 14 14 14 14 13 13 13 13 13 13 13 13 13 13 13 13 13 13 12 12 12 12 12 12 12 12 12 12 11 11 11 11 11 11 11 11 11 11 11 11 11
14 14 14 14 14 14 13 13 13 13 13 13 13 13 13 13 13 13 13 13 12 12 12 12 12 12 12 12 12 12 11 11 11 11 11 11 11 11 11 11 11 11 11
14 14 14 14 14 13 13 13 13 13 13 13 13 13 13 13 13 13 13 12 12 12 12 12 12 12 12 12 12 11 11 11 11 11 11 11 11 11 11 11 11 11 10
14 14 14 13 13 13 13 13 13 13 13 13 12 12 12 12 13 12 12 12 12 12 12 12 12 12 12 12 11 11 11 11 11 11 11 11 11 11 10 10 10 10 10
14 13 13 13 13 13 13 13 13 12 12 12 12 12 12 12 12 12 12 12 12 12 12 12 12 12 11 11 11 11 11 11 11 11 11 11 10 10 10 10 10 10 10
13 13 13 13 13 13 13 12 12 12 12 12 12 12 12 12 12 12 12 12 12 12 11 11 11 11 11 11 11 11 11 10 10 10 10 10 10 10 10 10 10 10 10
13 13 13 13 13 12 12 12 12 12 12 12 12 12 12 11 11 11 11 11 11 11 11 11 11 11 11 11 10 10 10 10 10 10 10 10 10 10 10 10 10 10 10
13 13 13 12 12 12 12 12 12 12 12 12 12 12 11 11 11 11 11 11 11 11 11 11 11 11 11 11 10 10 10 10 10 10 10 10 10 10 10 10 9 9 9
12 12 12 12 12 12 12 12 12 12 12 11 11 11 11 11 11 11 11 11 11 11 10 10 10 10 10 10 10 10 10 10 10 9 9 9 9 9 9 9 9 9 9
12 12 12 12 12 12 12 11 11 11 11 11 11 11 11 11 11 11 11 11 11 10 10 10 10 10 10 10 10 10 9 9 9 9 9 9 9 9 9 9 9 9 9
12 11 11 11 11 11 11 11 11 11 11 11 11 11 11 11 11 10 10 10 10 10 10 10 10 10 10 9 9 9 9 9 9 9 9 9 9 9 9 9 9 9 9
11 11 11 11 11 11 11 11 11 11 11 11 11 11 11 10 10 10 10 10 10 10 10 10 10 10 9 9 9 9 9 9 9 9 9 9 9 8 8 8 8 8 8
Wind_Speed
3 4 4 5 6 6 6 6 6 6 6 7 8 8 7 8 8 9 9 12 11 11 10 11 11 10 10 10 10 10 10 9 9 8 8 8 8 8 8 8 7 6 6
4 4 4 4 5 6 6 6 6 5 5 5 6 7 7 7 8 8 9 10 11 11 12 12 11 11 11 10 10 9 9 9 8 9 8 8 8 8 8 8 7 7 6
5 4 3 3 4 6 7 7 6 6 5 5 5 6 6 6 7 8 8 8 9 10 11 11 11 11 11 10 10 9 8 8 8 8 8 7 7 7 8 8 8 7 7
5 4 3 3 5 6 5 4 4 4 4 4 4 4 4 5 6 6 7 8 8 8 9 11 11 10 10 10 9 8 8 7 7 7 7 7 6 7 7 7 8 7 7
5 5 3 3 5 5 4 4 4 3 4 4 4 4 4 4 4 5 6 7 7 8 8 9 10 10 10 10 9 8 7 7 7 6 6 6 6 6 6 6 7 7 7
5 5 4 4 5 4 3 4 4 4 3 3 4 4 4 3 4 4 4 5 7 7 8 8 8 9 10 9 9 8 8 7 7 6 5 5 5 6 5 5 6 6 6
5 5 3 3 4 4 4 4 4 4 3 2 3 3 4 4 4 4 4 4 5 6 7 8 8 7 7 9 9 8 8 7 7 6 5 5 5 5 5 5 5 5 5
5 5 4 3 3 4 4 4 4 3 2 2 2 2 2 4 4 4 3 3 4 5 5 6 6 7 7 7 8 8 8 7 7 6 5 5 5 4 4 4 5 5 5
4 5 5 4 4 4 4 4 4 4 3 1 1 3 2 1 1 3 3 3 3 3 3 4 5 5 5 5 6 7 7 7 7 7 6 5 5 4 4 4 4 4 5
3 4 5 5 4 3 4 4 4 3 4 2 1 1 1 3 2 1 2 2 3 2 2 2 3 4 4 4 4 5 6 6 6 6 6 5 5 5 4 3 3 3 4
2 4 5 4 4 4 4 4 4 3 3 3 3 2 2 2 2 2 1 2 2 2 2 1 1 2 3 3 3 3 5 5 5 6 5 5 5 5 5 4 3 3 3
1 3 4 4 4 4 4 4 4 4 4 3 3 3 3 2 2 3 2 2 2 2 2 1 1 1 1 2 2 2 3 4 4 4 5 5 5 4 4 3 4 3 3
2 4 4 4 4 4 5 4 4 4 4 4 4 3 3 3 3 3 3 2 1 2 2 2 2 2 2 1 2 2 2 3 3 3 3 3 4 4 3 3 3 2 3
3 4 4 4 4 4 5 4 4 4 4 4 4 4 3 3 3 3 4 3 1 1 2 3 2 2 3 2 2 2 1 2 2 2 2 2 3 3 3 2 2 2 2
3 3 3 4 4 4 4 4 3 4 4 4 4 4 3 3 3 3 3 4 4 2 3 3 2 2 3 3 3 2 1 1 1 1 1 2 2 2 2 2 2 2 3
2 3 3 3 3 3 4 4 3 3 4 4 3 4 3 2 2 3 3 3 3 4 3 3 3 2 2 2 3 2 3 2 1 1 0 1 1 1 1 2 2 2 2
3 3 4 4 4 4 4 4 4 4 4 3 3 4 4 3 2 3 3 3 3 3 3 2 1 1 1 1 1 2 2 2 2 1 1 1 0 0 0 0 0 1 1
3 4 3 3 3 4 4 5 5 4 4 4 4 3 3 2 3 3 3 4 3 3 3 3 1 1 2 2 1 1 1 2 2 2 2 2 2 1 1 1 1 1 1
3 3 4 4 4 4 4 5 5 5 5 5 4 4 4 3 3 3 3 3 3 3 3 3 2 1 1 1 1 1 0 1 1 2 2 3 3 3 2 2 2 2 2
3 3 4 5 5 4 4 4 4 5 5 5 5 5 5 5 5 4 4 4 3 3 2 2 2 1 1 1 1 1 1 1 1 1 1 2 2 3 3 3 3 4 4
2 3 3 3 4 4 5 5 5 5 5 4 4 5 5 6 7 5 4 4 4 3 3 3 2 1 1 2 2 2 2 1 1 1 0 1 0 1 2 3 4 4 4
2 2 3 3 4 4 5 6 5 5 5 5 5 4 4 5 6 7 7 7 7 6 5 4 3 4 4 3 2 3 2 1 2 1 1 1 1 1 2 3 4 4 4
2 2 3 3 4 5 6 6 7 4 5 5 6 5 4 4 5 4 5 6 6 7 8 6 5 6 5 5 4 3 3 3 3 2 2 2 1 2 2 3 4 4 5
2 2 3 3 3 4 5 6 6 5 4 5 5 6 6 5 5 5 4 3 3 4 6 5 6 6 6 5 6 5 4 3 1 1 2 2 2 2 2 2 3 5 5
2 3 3 3 3 4 5 4 5 3 4 5 5 5 6 6 7 7 5 4 3 3 4 6 7 7 6 6 6 4 3 3 2 2 2 2 2 1 1 1 3 3 4
3 3 3 3 4 4 5 4 3 3 3 4 3 4 6 7 8 8 6 6 5 5 3 2 2 3 3 5 7 6 5 4 2 2 3 3 2 1 1 1 1 2 2
Wind_Direction
77 70 64 67 74 81 86 88 88 82 74 67 64 65 60 54 51 50 48 55 59 61 65 66 65 67 68 67 66 64 62 61 58 61 62 59 62 65 65 64 66 70 72
100 92 79 74 76 87 91 92 90 84 74 70 61 57 56 55 53 51 50 48 51 56 59 61 62 63 66 65 62 59 58 58 56 57 59 60 62 63 64 64 63 66 65
110 105 96 87 88 94 95 93 85 81 77 69 58 50 50 48 53 50 49 46 44 49 56 59 57 58 58 60 61 58 57 54 54 55 57 60 62 63 66 66 63 62 64
117 112 106 102 105 101 96 94 88 87 78 71 62 47 43 42 46 48 50 47 44 42 47 53 53 52 52 53 56 57 57 56 55 57 57 60 66 68 67 66 64 61 62
127 122 115 110 113 103 94 97 80 89 93 83 73 55 39 36 34 45 46 44 45 45 44 47 48 48 50 52 52 54 55 54 54 56 59 64 70 71 68 69 68 65 61
135 128 122 116 116 105 93 93 95 78 82 87 78 57 37 30 34 35 36 41 43 44 45 46 43 39 42 46 47 48 47 46 45 51 59 64 72 73 67 66 68 67 61
142 138 130 124 123 124 125 118 107 96 79 78 74 44 24 31 37 30 32 42 41 42 46 43 42 39 32 33 35 39 37 38 41 44 55 69 76 73 64 68 72 69 61
159 156 145 146 141 129 126 129 122 112 91 77 103 89 26 3 10 22 24 37 33 39 40 37 39 36 31 26 25 31 29 32 37 42 56 67 74 73 62 69 69 67 63
166 161 157 148 149 146 155 158 148 140 146 85 85 131 134 208 322 350 12 25 23 30 25 27 31 27 27 25 22 24 24 30 34 40 51 58 63 66 73 69 62 64 68
181 173 165 159 159 155 161 172 161 151 147 154 104 71 133 153 146 336 337 355 13 19 3 13 16 14 20 17 16 21 24 28 30 34 44 54 57 58 65 60 53 76 75
192 182 173 165 169 170 174 173 161 160 159 163 163 149 110 79 114 154 262 317 344 334 336 339 351 357 9 10 4 16 23 25 29 31 37 45 49 49 47 50 54 77 82
213 193 181 178 179 177 182 183 175 172 175 171 170 165 163 165 177 168 198 245 281 294 309 310 305 309 331 353 353 8 19 19 21 24 28 31 32 34 32 37 48 67 73
219 212 189 188 188 190 187 179 175 185 184 183 186 190 189 189 168 161 160 190 239 290 307 298 270 266 270 291 319 335 357 13 10 14 14 20 24 27 27 30 33 53 68
216 205 195 197 198 191 189 179 180 194 189 194 202 195 191 198 179 173 168 159 166 306 297 276 287 251 251 251 269 290 317 355 3 7 7 22 26 27 31 23 32 49 55
214 196 194 200 202 194 186 176 186 196 190 200 207 203 201 209 194 189 177 169 166 203 260 258 261 262 249 245 250 238 243 270 329 13 27 36 28 16 34 25 38 42 42
203 187 190 192 195 198 191 184 191 197 192 209 207 198 209 213 194 190 189 186 180 180 220 241 237 253 250 249 252 228 225 249 259 284 2 35 43 35 49 46 46 40 37
191 191 195 194 193 195 190 183 196 193 196 213 215 204 215 202 193 193 182 180 185 175 208 253 242 254 229 241 267 238 226 218 229 234 252 283 319 330 271 359 23 13 22
202 197 192 189 198 197 189 187 195 194 194 203 211 201 218 209 201 199 189 194 198 193 192 222 241 234 232 226 230 243 234 221 222 240 240 245 245 248 247 234 222 265 287
208 200 191 195 204 204 197 198 196 199 203 207 204 203 212 196 213 214 201 204 206 200 187 191 217 224 252 219 196 282 287 293 239 249 249 244 241 247 255 247 234 241 259
207 207 203 207 209 210 207 205 201 203 207 211 210 211 211 207 215 214 210 208 196 183 175 176 200 215 232 226 170 200 292 305 296 293 268 264 243 244 258 257 247 241 246
219 215 204 213 214 214 214 206 203 206 209 216 219 219 220 221 222 214 210 199 184 181 179 182 196 198 213 195 210 200 208 284 292 248 246 313 252 257 268 264 250 242 242
231 218 213 213 219 227 225 211 202 207 209 211 221 227 228 229 230 228 226 210 190 184 188 188 199 206 223 214 196 187 180 179 266 244 169 271 133 241 268 259 248 239 239
218 225 233 224 230 237 229 220 212 205 208 213 216 221 232 232 223 221 229 226 217 209 195 185 195 214 213 207 184 192 199 201 220 215 167 256 245 252 265 260 245 237 235
205 224 235 233 237 247 239 227 220 210 211 221 222 218 220 228 218 202 200 201 215 220 217 206 207 219 220 203 190 195 198 193 223 240 180 224 243 246 278 275 259 241 231
217 226 226 224 232 254 253 236 222 208 215 229 231 225 217 221 223 204 189 194 215 247 242 220 217 217 214 201 176 149 154 160 220 240 195 193 218 240 287 294 271 246 232
233 232 241 240 239 250 260 247 218 205 215 233 240 238 228 220 217 204 195 192 208 229 214 194 197 214 209 202 196 187 184 184 196 230 205 184 190 172 263 284 304 272 246
Height
1536 1536 1536 1537 1537 1538 1539 1539 1540 1541 1541 1542 1542 1543 1544 1544 1544 1545 1545 1545 1545 1544 1544 1544 1543 1543 1543 1542 1543 1543 1543 1543 1543 1543 1543 1543 1543 1543 1543 1543 1544 1544 1544
1537 1537 1538 1538 1538 1539 1540 1541 1541 1542 1543 1543 1544 1544 1545 1545 1545 1546 1546 1546 1546 1546 1545 1545 1545 1545 1544 1543 1543 1543 1543 1543 1543 1543 1543 1543 1543 1543 1543 1543 1544 1544 1544
1538 1539 1539 1539 1540 1540 1541 1541 1542 1543 1544 1544 1545 1545 1546 1546 1546 1547 1547 1547 1547 1547 1546 1546 1546 1546 1545 1545 1544 1544 1544 1544 1544 1544 1543 1543 1543 1543 1543 1543 1543 1544 1544
1539 1540 1540 1540 1541 1541 1542 1542 1543 1544 1544 1545 1546 1546 1546 1547 1547 1548 1548 1548 1548 1548 1547 1547 1547 1546 1546 1545 1545 1544 1544 1544 1544 1544 1544 1543 1543 1543 1543 1543 1543 1544 1544
1540 1540 1540 1541 1541 1542 1542 1543 1543 1544 1545 1545 1546 1547 1547 1547 1548 1548 1548 1548 1548 1548 1548 1548 1547 1547 1546 1546 1545 1545 1545 1544 1544 1543 1543 1543 1543 1543 1543 1543 1543 1543 1543
1540 1540 1541 1541 1542 1542 1543 1543 1544 1544 1545 1545 1546 1547 1547 1548 1548 1548 1548 1549 1548 1548 1548 1548 1548 1547 1547 1546 1546 1545 1545 1544 1544 1543 1543 1543 1543 1543 1543 1543 1543 1543 1543
1540 1540 1540 1541 1541 1542 1543 1543 1544 1544 1545 1545 1546 1547 1548 1548 1548 1549 1549 1549 1549 1549 1549 1548 1548 1548 1547 1546 1546 1545 1545 1544 1544 1543 1543 1542 1542 1543 1543 1543 1543 1543 1543
1539 1539 1540 1540 1541 1542 1542 1543 1544 1544 1545 1546 1546 1547 1548 1549 1549 1549 1549 1549 1549 1549 1549 1548 1548 1548 1547 1547 1546 1545 1545 1544 1543 1543 1542 1542 1542 1542 1542 1542 1542 1542 1542
1538 1539 1539 1540 1540 1541 1542 1542 1543 1544 1545 1546 1546 1547 1547 1547 1548 1549 1549 1549 1549 1549 1548 1548 1548 1547 1547 1547 1546 1545 1545 1544 1543 1543 1542 1542 1541 1541 1541 1542 1542 1542 1542
1537 1537 1538 1539 1540 1540 1541 1542 1543 1543 1544 1545 1546 1546 1547 1547 1548 1548 1548 1548 1548 1548 1548 1548 1547 1547 1547 1546 1546 1545 1544 1544 1543 1542 1542 1541 1541 1541 1541 1541 1541 1541 1541
1536 1536 1537 1538 1538 1539 1540 1541 1542 1542 1543 1544 1545 1545 1546 1546 1547 1547 1547 1547 1547 1547 1547 1547 1546 1546 1546 1545 1545 1544 1544 1543 1543 1542 1542 1541 1541 1540 1540 1540 1540 1540 1540
1534 1535 1536 1536 1537 1538 1539 1540 1540 1541 1542 1543 1544 1544 1545 1545 1545 1546 1545 1545 1545 1545 1545 1545 1545 1545 1545 1544 1544 1543 1543 1542 1542 1541 1541 1540 1540 1540 1539 1539 1539 1539 1539
1532 1533 1534 1534 1535 1536 1537 1538 1539 1540 1540 1541 1542 1542 1543 1544 1544 1544 1544 1543 1543 1543 1543 1543 1543 1544 1543 1543 1543 1542 1542 1541 1541 1540 1540 1539 1539 1539 1539 1539 1539 1539 1539
1531 1531 1532 1533 1533 1534 1535 1536 1537 1537 1538 1539 1540 1540 1541 1542 1542 1542 1542 1542 1541 1541 1541 1542 1542 1542 1542 1542 1541 1541 1540 1540 1540 1539 1539 1538 1538 1538 1538 1538 1538 1537 1537
1528 1529 1529 1530 1531 1532 1533 1533 1534 1535 1536 1536 1537 1538 1539 1539 1540 1540 1540 1540 1541 1539 1539 1539 1540 1540 1540 1540 1540 1539 1539 1539 1538 1538 1537 1537 1537 1536 1536 1536 1537 1536 1536
1526 1526 1527 1527 1528 1529 1530 1530 1531 1532 1533 1534 1535 1535 1536 1536 1537 1537 1537 1538 1538 1538 1537 1537 1537 1538 1538 1538 1538 1537 1537 1537 1537 1536 1536 1536 1535 1535 1535 1535 1535 1536 1536
1523 1524 1524 1524 1525 1526 1526 1527 1528 1529 1530 1531 1531 1532 1533 1533 1534 1534 1534 1535 1535 1535 1535 1535 1535 1535 1536 1536 1536 1535 1535 1535 1535 1535 1534 1534 1534 1534 1534 1534 1534 1534 1534
1520 1521 1521 1522 1522 1523 1523 1524 1525 1525 1526 1527 1528 1529 1529 1530 1530 1531 1531 1531 1532 1532 1532 1532 1532 1533 1533 1533 1533 1533 1533 1533 1533 1533 1533 1533 1532 1532 1532 1532 1533 1533 1533
1517 1518 1518 1519 1519 1520 1520 1521 1521 1522 1523 1524 1524 1525 1526 1526 1527 1527 1528 1528 1529 1529 1529 1529 1529 1529 1530 1530 1530 1531 1531 1531 1531 1531 1531 1531 1530 1530 1530 1530 1531 1531 1531
1514 1514 1515 1515 1516 1516 1517 1518 1518 1519 1519 1520 1521 1521 1522 1522 1523 1524 1524 1524 1525 1525 1526 1526 1526 1526 1527 1527 1528 1528 1528 1528 1528 1528 1528 1528 1528 1528 1528 1528 1528 1528 1529
1510 1511 1511 1512 1512 1513 1513 1514 1514 1515 1516 1516 1517 1518 1518 1519 1519 1520 1520 1521 1521 1521 1522 1522 1522 1523 1523 1524 1524 1524 1525 1525 1525 1525 1525 1525 1525 1526 1526 1526 1526 1526 1526
1506 1507 1507 1508 1509 1509 1509 1510 1511 1511 1512 1512 1513 1514 1514 1515 1515 1516 1516 1517 1517 1518 1518 1518 1518 1519 1519 1520 1521 1521 1522 1522 1522 1523 1523 1523 1523 1523 1523 1523 1523 1523 1524
1503 1503 1504 1504 1505 1505 1506 1506 1507 1507 1508 1508 1509 1510 1510 1511 1511 1512 1512 1513 1513 1514 1514 1515 1515 1515 1516 1517 1517 1518 1518 1518 1519 1519 1519 1519 1519 1519 1520 1520 1520 1521 1521
1499 1499 1500 1500 1501 1501 1502 1503 1503 1504 1504 1504 1505 1505 1506 1507 1507 1508 1508 1509 1509 1510 1510 1511 1511 1512 1512 1513 1514 1514 1515 1515 1515 1516 1516 1515 1515 1516 1516 1516 1517 1517 1517
1496 1496 1496 1496 1496 1497 1498 1499 1499 1499 1500 1500 1501 1501 1502 1503 1503 1504 1504 1504 1505 1506 1506 1507 1507 1508 1509 1509 1510 1510 1510 1511 1511 1512 1512 1512 1512 1512 1513 1513 1513 1513 1514
1492 1492 1492 1492 1493 1493 1494 1494 1495 1495 1495 1495 1496 1497 1498 1498 1499 1499 1500 1500 1500 1501 1502 1503 1503 1504 1505 1505 1506 1506 1507 1507 1507 1507 1508 1508 1508 1509 1509 1509 1510 1510 1510